| time (UTC) | temp F | wind direction | speed knots | gust knots | rain 1hr in | rain 24hr in | rain mn in | humidity % | barometer mb |
| 20260506103537 | 60 | 225 | 2.6 | 5.2 | 0.00 | 0.37 | 0.01 | 78 | 1005.8 |
| 20260506102517 | 60 | 158 | 4.3 | 7.0 | 0.00 | 0.37 | 0.01 | 80 | 1006.0 |
| 20260506101517 | 60 | 158 | 3.5 | 6.1 | 0.00 | 0.37 | 0.01 | 80 | 1006.0 |
| 20260506100517 | 60 | 158 | 3.5 | 7.8 | 0.00 | 0.37 | 0.01 | 80 | 1005.8 |
| 20260506095518 | 60 | 158 | 4.3 | 7.8 | 0.00 | 0.37 | 0.01 | 80 | 1005.8 |
| 20260506094517 | 60 | 158 | 3.5 | 6.1 | 0.00 | 0.37 | 0.01 | 80 | 1005.8 |
| 20260506093517 | 59 | 158 | 3.5 | 5.2 | 0.00 | 0.37 | 0.01 | 80 | 1005.8 |
| 20260506092517 | 60 | 158 | 3.5 | 7.8 | 0.00 | 0.37 | 0.01 | 79 | 1005.7 |
| 20260506091517 | 61 | 180 | 3.5 | 6.1 | 0.00 | 0.37 | 0.01 | 80 | 1005.7 |
| 20260506090517 | 60 | 158 | 3.5 | 7.0 | 0.00 | 0.37 | 0.01 | 83 | 1005.6 |
| 20260506085517 | 60 | 158 | 3.5 | 7.8 | 0.00 | 0.37 | 0.01 | 85 | 1006.0 |
| 20260506084517 | 60 | 180 | 4.3 | 7.8 | 0.00 | 0.37 | 0.01 | 88 | 1006.0 |
| 20260506083517 | 58 | 158 | 3.5 | 7.0 | 0.00 | 0.37 | 0.01 | 92 | 1005.9 |
| 20260506082537 | 56 | 135 | 1.7 | 5.2 | 0.00 | 0.37 | 0.01 | 92 | 1005.6 |
| 20260506081517 | 55 | 158 | 2.6 | 5.2 | 0.00 | 0.37 | 0.01 | 92 | 1005.7 |
| 20260506080517 | 55 | 158 | 2.6 | 7.0 | 0.00 | 0.37 | 0.01 | 93 | 1005.5 |
| 20260506073517 | 55 | 158 | 2.6 | 5.2 | 0.00 | 0.37 | 0.01 | 94 | 1005.5 |
| 20260506072517 | 55 | 158 | 3.5 | 7.0 | 0.00 | 0.37 | 0.01 | 95 | 1005.6 |
| 20260506071517 | 55 | 158 | 3.5 | 7.0 | 0.00 | 0.37 | 0.01 | 95 | 1005.5 |
| 20260506070517 | 55 | 248 | 2.6 | 4.3 | 0.00 | 0.37 | 0.01 | 95 | 1005.3 |
| 20260506062517 | 55 | 203 | 0.9 | 3.5 | 0.00 | 0.37 | 0.01 | 96 | 1005.4 |
| 20260506061516 | 53 | 293 | 0.9 | 3.5 | 0.00 | 0.37 | 0.01 | 96 | 1005.3 |
| 20260506060517 | 52 | 0.0 | 2.6 | 0.00 | 0.37 | 0.01 | 96 | 1005.4 | |
| 20260506050516 | 52 | 203 | 2.6 | 5.2 | 0.00 | 0.37 | 0.01 | 96 | 1006.0 |
| 20260506044516 | 52 | 203 | 2.6 | 6.1 | 0.00 | 0.37 | 0.01 | 96 | 1006.0 |
| 20260506043516 | 52 | 158 | 2.6 | 4.3 | 0.00 | 0.37 | 0.01 | 96 | 1006.1 |
| 20260506042516 | 52 | 203 | 2.6 | 5.2 | 0.00 | 0.37 | 0.01 | 96 | 1006.0 |
| 20260506041516 | 51 | 158 | 3.5 | 4.3 | 0.00 | 0.37 | 0.01 | 95 | 1005.9 |
| 20260506040516 | 51 | 158 | 3.5 | 5.2 | 0.00 | 0.37 | 0.01 | 96 | 1005.9 |
| 20260506035516 | 51 | 158 | 3.5 | 5.2 | 0.00 | 0.37 | 0.01 | 95 | 1005.7 |
| 20260506034516 | 51 | 158 | 2.6 | 5.2 | 0.00 | 0.37 | 0.01 | 95 | 1005.8 |
| 20260506033516 | 51 | 158 | 2.6 | 4.3 | 0.00 | 0.37 | 0.01 | 95 | 1005.8 |
| 20260506032516 | 51 | 158 | 3.5 | 5.2 | 0.00 | 0.37 | 0.01 | 95 | 1005.9 |
| 20260506031516 | 51 | 180 | 2.6 | 4.3 | 0.00 | 0.37 | 0.01 | 95 | 1005.9 |
| 20260506030516 | 51 | 180 | 2.6 | 5.2 | 0.00 | 0.37 | 0.01 | 95 | 1006.1 |
| 20260506025516 | 51 | 158 | 4.3 | 7.0 | 0.00 | 0.37 | 0.01 | 95 | 1006.1 |
| 20260506024516 | 51 | 158 | 3.5 | 6.1 | 0.00 | 0.37 | 0.01 | 95 | 1006.2 |
| 20260506023516 | 51 | 158 | 2.6 | 5.2 | 0.00 | 0.37 | 0.01 | 95 | 1006.1 |
| 20260506022516 | 51 | 158 | 3.5 | 5.2 | 0.00 | 0.37 | 0.01 | 95 | 1006.1 |
| 20260506021516 | 51 | 158 | 4.3 | 7.0 | 0.00 | 0.37 | 0.01 | 95 | 1006.0 |
| 20260506020516 | 51 | 158 | 3.5 | 5.2 | 0.00 | 0.37 | 0.01 | 95 | 1006.1 |
| 20260506015516 | 51 | 158 | 2.6 | 4.3 | 0.00 | 0.37 | 0.01 | 95 | 1006.2 |
| 20260506014536 | 51 | 158 | 2.6 | 4.3 | 0.00 | 0.37 | 0.01 | 95 | 1006.2 |
| 20260506013516 | 51 | 158 | 4.3 | 6.1 | 0.00 | 0.37 | 0.01 | 95 | 1006.2 |
| 20260506012516 | 51 | 158 | 3.5 | 5.2 | 0.00 | 0.37 | 0.01 | 95 | 1006.4 |
| 20260506011536 | 51 | 158 | 2.6 | 5.2 | 0.00 | 0.37 | 0.01 | 95 | 1006.3 |
| 20260506010536 | 51 | 158 | 3.5 | 6.1 | 0.00 | 0.37 | 0.01 | 95 | 1006.2 |
| 20260506005516 | 52 | 180 | 2.6 | 6.1 | 0.00 | 0.37 | 0.01 | 95 | 1006.4 |
| 20260506004536 | 52 | 158 | 2.6 | 5.2 | 0.00 | 0.37 | 0.01 | 95 | 1006.4 |
| 20260506003516 | 52 | 180 | 2.6 | 6.1 | 0.00 | 0.37 | 0.01 | 95 | 1006.5 |
| 20260506002516 | 52 | 180 | 1.7 | 7.0 | 0.00 | 0.37 | 0.01 | 95 | 1006.6 |
| 20260506001516 | 52 | 180 | 2.6 | 4.3 | 0.00 | 0.37 | 0.01 | 95 | 1006.8 |
| 20260506000517 | 52 | 158 | 3.5 | 5.2 | 0.01 | 0.37 | 0.01 | 95 | 1006.8 |
| 20260505235516 | 52 | 158 | 1.7 | 4.3 | 0.01 | 0.37 | 0.01 | 94 | 1007.0 |
| 20260505234516 | 52 | 158 | 2.6 | 5.2 | 0.01 | 0.37 | 0.01 | 94 | 1007.0 |
| 20260505233516 | 52 | 158 | 2.6 | 4.3 | 0.01 | 0.37 | 0.01 | 95 | 1007.1 |
| 20260505232515 | 52 | 203 | 3.5 | 5.2 | 0.01 | 0.37 | 0.01 | 94 | 1007.1 |
| 20260505231515 | 52 | 180 | 2.6 | 5.2 | 0.01 | 0.37 | 0.01 | 95 | 1007.1 |
| 20260505230515 | 53 | 180 | 1.7 | 3.5 | 0.00 | 0.36 | 0.00 | 94 | 1006.9 |
| 20260505225521 | 53 | 180 | 2.6 | 4.3 | 0.00 | 0.36 | 0.00 | 94 | 1006.8 |
| 20260505224515 | 53 | 158 | 3.5 | 5.2 | 0.00 | 0.36 | 0.00 | 94 | 1006.8 |
| 20260505223516 | 53 | 158 | 2.6 | 4.3 | 0.00 | 0.36 | 0.00 | 94 | 1006.8 |
| 20260505222515 | 53 | 158 | 2.6 | 5.2 | 0.00 | 0.36 | 0.00 | 94 | 1006.9 |
| 20260505221517 | 53 | 158 | 1.7 | 4.3 | 0.00 | 0.36 | 0.00 | 94 | 1007.0 |
| 20260505220517 | 53 | 203 | 1.7 | 2.6 | 0.00 | 0.36 | 0.00 | 94 | 1006.9 |
| 20260505215517 | 53 | 225 | 1.7 | 3.5 | 0.00 | 0.36 | 0.36 | 94 | 1006.7 |
| 20260505214517 | 53 | 0.0 | 1.7 | 0.00 | 0.36 | 0.36 | 94 | 1006.6 | |
| 20260505213557 | 53 | 225 | 1.7 | 2.6 | 0.00 | 0.36 | 0.36 | 94 | 1006.9 |
| 20260505212516 | 53 | 225 | 1.7 | 2.6 | 0.00 | 0.36 | 0.36 | 94 | 1007.0 |
| 20260505211516 | 53 | 0.0 | 1.7 | 0.00 | 0.36 | 0.36 | 94 | 1006.8 | |
| 20260505210517 | 53 | 0.0 | 0.9 | 0.00 | 0.36 | 0.36 | 94 | 1006.9 | |
| 20260505205516 | 53 | 0.0 | 1.7 | 0.00 | 0.36 | 0.36 | 93 | 1006.8 | |
| 20260505204516 | 53 | 0.0 | 1.7 | 0.00 | 0.36 | 0.36 | 93 | 1006.9 | |
| 20260505203516 | 53 | 0.0 | 0.0 | 0.00 | 0.36 | 0.36 | 93 | 1006.6 | |
| 20260505202516 | 53 | 0.0 | 1.7 | 0.00 | 0.36 | 0.36 | 93 | 1006.6 | |
| 20260505201539 | 53 | 225 | 0.9 | 1.7 | 0.00 | 0.36 | 0.36 | 93 | 1006.3 |
| 20260505200536 | 53 | 225 | 1.7 | 2.6 | 0.00 | 0.36 | 0.36 | 93 | 1006.1 |
| 20260505195516 | 54 | 225 | 1.7 | 3.5 | 0.00 | 0.36 | 0.36 | 93 | 1005.9 |
| 20260505194536 | 54 | 203 | 0.9 | 2.6 | 0.00 | 0.36 | 0.36 | 93 | 1005.7 |
| 20260505193516 | 54 | 0.0 | 0.0 | 0.00 | 0.36 | 0.36 | 93 | 1005.5 | |
| 20260505192516 | 54 | 0.0 | 2.6 | 0.00 | 0.36 | 0.36 | 93 | 1005.4 | |
| 20260505191516 | 54 | 0.0 | 1.7 | 0.00 | 0.36 | 0.36 | 93 | 1005.4 | |
| 20260505190516 | 54 | 293 | 0.9 | 4.3 | 0.00 | 0.36 | 0.36 | 93 | 1005.5 |
| 20260505185516 | 54 | 315 | 1.7 | 4.3 | 0.00 | 0.36 | 0.36 | 92 | 1005.3 |
| 20260505184516 | 54 | 338 | 0.9 | 6.1 | 0.00 | 0.36 | 0.36 | 92 | 1005.3 |
| 20260505183516 | 54 | 0.0 | 0.9 | 0.00 | 0.36 | 0.36 | 92 | 1005.3 | |
| 20260505182516 | 55 | 293 | 0.9 | 7.0 | 0.12 | 0.36 | 0.36 | 92 | 1005.4 |
| 20260505181516 | 55 | 315 | 0.9 | 3.5 | 0.24 | 0.36 | 0.36 | 91 | 1005.3 |
| 20260505180536 | 55 | 0.0 | 2.6 | 0.35 | 0.36 | 0.36 | 91 | 1005.3 | |
| 20260505175516 | 55 | 0.0 | 0.9 | 0.36 | 0.36 | 0.36 | 91 | 1005.2 | |
| 20260505174516 | 55 | 315 | 1.7 | 3.5 | 0.36 | 0.36 | 0.36 | 90 | 1005.1 |
| 20260505173516 | 56 | 270 | 5.2 | 9.6 | 0.36 | 0.36 | 0.36 | 89 | 1005.1 |
| 20260505172516 | 56 | 270 | 6.1 | 11.3 | 0.24 | 0.24 | 0.24 | 88 | 1005.3 |
| 20260505171519 | 58 | 248 | 9.6 | 18.2 | 0.13 | 0.13 | 0.13 | 82 | 1005.2 |
| 20260505170516 | 62 | 225 | 9.6 | 18.2 | 0.02 | 0.02 | 0.02 | 73 | 1005.3 |
| 20260505165516 | 66 | 225 | 5.2 | 19.1 | 0.00 | 0.00 | 0.00 | 65 | 1004.7 |
| 20260505164516 | 67 | 0 | 0.9 | 2.6 | 0.00 | 0.00 | 0.00 | 64 | 1003.9 |
| 20260505163516 | 67 | 45 | 0.9 | 2.6 | 0.00 | 0.00 | 0.00 | 64 | 1004.0 |
| 20260505162516 | 68 | 0 | 0.9 | 3.5 | 0.00 | 0.00 | 0.00 | 65 | 1004.0 |
| 20260505161516 | 68 | 23 | 0.9 | 2.6 | 0.00 | 0.00 | 0.00 | 65 | 1004.0 |
| 20260505160516 | 68 | 23 | 0.9 | 3.5 | 0.00 | 0.00 | 0.00 | 65 | 1004.1 |
| 20260505152515 | 69 | 23 | 1.7 | 7.8 | 0.00 | 0.00 | 0.00 | 61 | 1004.3 |
| 20260505151536 | 70 | 45 | 1.7 | 6.1 | 0.00 | 0.00 | 0.00 | 60 | 1004.5 |
| 20260505150516 | 71 | 23 | 0.9 | 7.0 | 0.00 | 0.00 | 0.00 | 60 | 1004.4 |
| 20260505140518 | 71 | 0 | 0.9 | 4.3 | 0.00 | 0.00 | 0.00 | 57 | 1005.0 |
| 20260505124517 | 74 | 0.0 | 0.9 | 0.00 | 0.00 | 0.00 | 47 | 1005.7 | |
| 20260505123517 | 75 | 270 | 1.7 | 6.1 | 0.00 | 0.00 | 0.00 | 46 | 1005.7 |
| 20260505122517 | 76 | 293 | 1.7 | 4.3 | 0.00 | 0.00 | 0.00 | 45 | 1005.9 |
| 20260505121518 | 76 | 293 | 1.7 | 5.2 | 0.00 | 0.00 | 0.00 | 48 | 1006.1 |
| 20260505120558 | 75 | 293 | 0.9 | 3.5 | 0.00 | 0.00 | 0.00 | 46 | 1006.1 |
| 20260505115517 | 75 | 158 | 1.7 | 6.1 | 0.00 | 0.00 | 0.00 | 41 | 1006.2 |
| 20260505114517 | 77 | 158 | 1.7 | 6.1 | 0.00 | 0.00 | 0.00 | 41 | 1006.4 |
| 20260505113517 | 76 | 293 | 1.7 | 5.2 | 0.00 | 0.00 | 0.00 | 39 | 1006.5 |
| 20260505112517 | 74 | 270 | 0.9 | 1.7 | 0.00 | 0.00 | 0.00 | 43 | 1006.4 |
| 20260505111517 | 75 | 270 | 1.7 | 5.2 | 0.00 | 0.00 | 0.00 | 46 | 1006.5 |
| 20260505110517 | 73 | 293 | 0.9 | 3.5 | 0.00 | 0.00 | 0.00 | 48 | 1006.6 |